Weather History for KACB - November, 2012

Change the Weather History Date:

Wednesday, November 7, 2012

  Actual Average (KTVC) Record (KTVC)
Temperature  
Mean Temperature 36 °F 40 °F  
Max Temperature 47 °F 48 °F 63 °F (2009)
Min Temperature 27 °F 33 °F 14 °F (1992)
Degree Days  
Heating Degree Days 28 24  
Month to date heating degree days 163  
Since 1 July heating degree days 950  
Moisture  
Dew Point 28 °F    
Average Humidity 71    
Maximum Humidity 93    
Minimum Humidity 48    
Precipitation  
Precipitation 0.00 in 0.10 in 0.81 in (1951)
Month to date precipitation 0.67  
Year to date precipitation 28.53  
Sea Level Pressure  
Sea Level Pressure 30.10 in    
Wind  
Wind Speed 5 mph (East)    
Max Wind Speed 13 mph    
Max Gust Speed 21 mph    
Visibility 10 miles    
Events      
T = Trace of Precipitation, MM = Missing Value Source: NWS Daily Summary

Daily Weather History Graph

Daily Weather History Graph

Search for Another Location

Airport or City:

Trip Planner

Search our weather history database for the weather conditions in past years. The results will help you decide how hot, cold, wet, or windy it might be!

Date:

Astronomy

Nov. 07, 2012 Rise Set
Actual Time 7:28 AM EST 5:20 PM EST
Civil Twilight 6:57 AM EST 5:51 PM EST
Nautical Twilight 6:21 AM EST 6:26 PM EST
Astronomical Twilight 5:47 AM EST 7:00 PM EST
Moon 12:03 AM EST (11/7) 1:45 PM EST (11/7)
Length of Visible Light 10h 54m
Length of Day
9h 52m
Last Quarter, 43% of the Moon is Illuminated
Nov 7
Last Quarter
Nov 13
New
Nov 20
First Quarter
Nov 28
Full
Dec 6
Last Quarter

Hourly Weather History & Observations

Time (EST) Temp. Windchill Dew Point Humidity Pressure Visibility Wind Dir Wind Speed Gust Speed Precip Events Conditions
12:12 AM 39.4 °F 35.2 °F 27.5 °F 62% 30.00 in 10.0 mi East 5.8 mph - N/A   Overcast
12:32 AM 39.4 °F 34.5 °F 27.5 °F 62% 30.01 in 10.0 mi East 6.9 mph 16.1 mph N/A   Overcast
12:52 AM 39.2 °F 34.2 °F 27.5 °F 63% 30.01 in 10.0 mi ENE 6.9 mph - N/A   Overcast
1:13 AM 39.2 °F 35.0 °F 28.0 °F 64% 30.01 in 10.0 mi East 5.8 mph - N/A   Overcast
1:32 AM 39.4 °F 34.5 °F 28.2 °F 64% 30.01 in 10.0 mi East 6.9 mph - N/A   Overcast
1:52 AM 39.2 °F 34.2 °F 28.4 °F 65% 30.01 in 10.0 mi ENE 6.9 mph - N/A   Overcast
2:12 AM 39.2 °F 34.2 °F 28.4 °F 65% 30.02 in 10.0 mi ENE 6.9 mph - N/A   Overcast
2:32 AM 39.2 °F 33.6 °F 28.9 °F 67% 30.02 in 10.0 mi East 8.1 mph - N/A   Overcast
2:52 AM 39.2 °F 33.6 °F 28.8 °F 66% 30.02 in 10.0 mi East 8.1 mph - N/A   Overcast
3:12 AM 39.2 °F 34.2 °F 28.9 °F 67% 30.02 in 10.0 mi East 6.9 mph - N/A   Overcast
3:53 AM 38.8 °F 33.8 °F 29.1 °F 68% 30.03 in 10.0 mi ENE 6.9 mph - N/A   Overcast
4:12 AM 38.7 °F 32.9 °F 29.3 °F 69% 30.03 in 10.0 mi East 8.1 mph - N/A   Overcast
4:32 AM 38.7 °F 33.6 °F 29.1 °F 69% 30.03 in 10.0 mi East 6.9 mph - N/A   Overcast
4:53 AM 38.7 °F 32.9 °F 29.3 °F 69% 30.04 in 10.0 mi East 8.1 mph - N/A   Overcast
5:12 AM 38.5 °F 32.1 °F 29.1 °F 69% 30.04 in 10.0 mi East 9.2 mph - N/A   Overcast
5:32 AM 38.3 °F 32.5 °F 28.8 °F 69% 30.05 in 10.0 mi ENE 8.1 mph - N/A   Overcast
5:53 AM 37.4 °F 30.8 °F 28.8 °F 71% 30.06 in 10.0 mi East 9.2 mph - N/A   Overcast
6:12 AM 36.7 °F 30.5 °F 28.8 °F 73% 30.06 in 10.0 mi ENE 8.1 mph - N/A   Overcast
6:32 AM 35.4 °F 29.0 °F 28.8 °F 77% 30.06 in 10.0 mi East 8.1 mph - N/A   Scattered Clouds
7:12 AM 31.8 °F 26.2 °F 27.7 °F 85% 30.08 in 10.0 mi NE 5.8 mph - N/A   Clear
7:33 AM 30.9 °F 27.5 °F 27.7 °F 88% 30.09 in 10.0 mi NE 3.5 mph - N/A   Clear
7:52 AM 30.7 °F - 27.5 °F 88% 30.10 in 7.0 mi Calm Calm - N/A   Clear
8:12 AM 30.9 °F - 28.2 °F 90% 30.11 in 10.0 mi Calm Calm - N/A   Clear
8:33 AM 33.1 °F - 29.7 °F 87% 30.12 in 10.0 mi Calm Calm - N/A   Scattered Clouds
8:52 AM 35.2 °F 30.3 °F 30.6 °F 83% 30.12 in 10.0 mi NE 5.8 mph - N/A   Clear
9:12 AM 37.6 °F - 29.1 °F 72% 30.12 in 10.0 mi Calm Calm - N/A   Clear
9:33 AM 39.0 °F 33.4 °F 29.1 °F 68% 30.12 in 10.0 mi East 8.1 mph - N/A   Clear
9:52 AM 40.8 °F 35.0 °F 29.1 °F 63% 30.12 in 10.0 mi East 9.2 mph - N/A   Clear
10:12 AM 42.1 °F 36.1 °F 28.4 °F 58% 30.12 in 10.0 mi East 10.4 mph 16.1 mph N/A   Clear
10:32 AM 43.2 °F 37.0 °F 28.4 °F 56% 30.12 in 10.0 mi ESE 11.5 mph 17.3 mph N/A   Clear
10:52 AM 43.9 °F 38.8 °F 28.6 °F 55% 30.12 in 10.0 mi East 9.2 mph 18.4 mph N/A   Clear
11:12 AM 43.7 °F 37.7 °F 28.4 °F 55% 30.13 in 10.0 mi East 11.5 mph 18.4 mph N/A   Scattered Clouds
11:32 AM 43.5 °F 37.1 °F 28.6 °F 56% 30.13 in 10.0 mi East 12.7 mph 20.7 mph N/A   Scattered Clouds
11:52 AM 44.1 °F 39.5 °F 28.2 °F 54% 30.13 in 10.0 mi ESE 8.1 mph - N/A   Clear
12:12 PM 45.0 °F 41.2 °F 28.2 °F 52% 30.12 in 10.0 mi East 6.9 mph - N/A   Clear
12:33 PM 45.3 °F 42.3 °F 28.0 °F 51% 30.10 in 10.0 mi ENE 5.8 mph - N/A   Clear
12:52 PM - - - N/A% - - North - - N/A   Unknown
1:12 PM - - - N/A% - - North - - N/A   Unknown
1:33 PM - - - N/A% - - North - - N/A   Unknown
1:55 PM - - - N/A% - - North - - N/A   Unknown
2:15 PM 45.3 °F - 27.0 °F 49% 30.09 in 10.0 mi Calm Calm - N/A   Overcast
2:34 PM 46.2 °F 44.1 °F 27.9 °F 49% 30.09 in 10.0 mi East 4.6 mph - N/A   Mostly Cloudy
2:55 PM 46.4 °F 43.5 °F 27.7 °F 48% 30.09 in 10.0 mi East 5.8 mph - N/A   Scattered Clouds
3:15 PM 45.5 °F 44.2 °F 28.4 °F 51% 30.09 in 10.0 mi East 3.5 mph - N/A   Mostly Cloudy
3:35 PM 45.7 °F 42.0 °F 28.6 °F 51% 30.10 in 10.0 mi East 6.9 mph - N/A   Overcast
3:55 PM 44.8 °F 41.6 °F 28.0 °F 52% 30.10 in 10.0 mi ESE 5.8 mph - N/A   Overcast
4:15 PM 44.2 °F 41.0 °F 28.0 °F 53% 30.09 in 10.0 mi ESE 5.8 mph - N/A   Overcast
4:40 PM 43.9 °F 41.3 °F 27.7 °F 53% 30.10 in 10.0 mi East 4.6 mph - N/A   Overcast
4:55 PM 43.2 °F - 27.5 °F 54% 30.10 in 10.0 mi Calm Calm - N/A   Overcast
5:15 PM 41.9 °F - 27.7 °F 57% 30.11 in 10.0 mi Calm Calm - N/A   Scattered Clouds
5:35 PM 38.8 °F - 28.8 °F 67% 30.12 in 10.0 mi Calm Calm - N/A   Clear
5:55 PM 36.9 °F - 29.1 °F 74% 30.12 in 10.0 mi Calm Calm - N/A   Clear
6:14 PM 33.6 °F - 28.4 °F 81% 30.12 in 10.0 mi Calm Calm - N/A   Clear
6:35 PM 33.3 °F - 28.2 °F 82% 30.13 in 10.0 mi Calm Calm - N/A   Clear
6:55 PM 31.8 °F - 27.3 °F 83% 30.13 in 10.0 mi Calm Calm - N/A   Clear
7:15 PM 32.0 °F - 28.0 °F 85% 30.15 in 10.0 mi Calm Calm - N/A   Clear
7:35 PM 30.0 °F - 26.6 °F 87% 30.15 in 10.0 mi Calm Calm - N/A   Clear
7:55 PM 30.4 °F - 27.0 °F 87% 30.15 in 10.0 mi Calm Calm - N/A   Clear
8:15 PM 29.3 °F - 26.6 °F 90% 30.15 in 10.0 mi Calm Calm - N/A   Clear
8:35 PM 28.6 °F - 26.1 °F 90% 30.15 in 10.0 mi Calm Calm - N/A   Clear
8:55 PM 27.7 °F - 25.3 °F 91% 30.15 in 10.0 mi Calm Calm - N/A   Clear
9:15 PM 28.0 °F - 26.1 °F 92% 30.15 in 10.0 mi Calm Calm - N/A   Scattered Clouds
9:35 PM 29.1 °F - 26.4 °F 90% 30.15 in 10.0 mi Calm Calm - N/A   Mostly Cloudy
9:55 PM 28.2 °F - 25.5 °F 90% 30.15 in 10.0 mi Calm Calm - N/A   Scattered Clouds
10:15 PM 27.3 °F - 25.2 °F 92% 30.15 in 10.0 mi Calm Calm - N/A   Clear
10:35 PM 28.2 °F - 26.4 °F 93% 30.15 in 10.0 mi Calm Calm - N/A   Clear
10:55 PM 27.3 °F - 25.5 °F 93% 30.15 in 10.0 mi Calm Calm - N/A   Clear
11:14 PM 27.9 °F - 26.1 °F 93% 30.15 in 10.0 mi Calm Calm - N/A   Clear
11:35 PM 27.9 °F - 25.9 °F 92% 30.15 in 10.0 mi Calm Calm - N/A   Clear
11:55 PM 27.9 °F - 25.9 °F 92% 30.15 in 10.0 mi Calm Calm - N/A   Scattered Clouds